When you browse on this site, cookies collect data to enhance your experience and personalize the content and advertising you see.
Visit our Privacy Policy to learn more. By continuing to use the site, you agree to this use of cookies and data.
  • In Hungary
  • List of Countries
  • For 7 days
  • Water Temperature
  • Weather Map
  • News
  • Weather Widgets
  • user-avatar
    Login

    Hourly Weather Jerwonice

    Today, 7 December, Saturday

    Time Temperature Precipitation Wind Pressure Humidity
    00:00 -2°C° 0 mm 7 mps 744 mmHg 53%
    01:00 -2°C° 0 mm 7 mps 743 mmHg 52%
    02:00 -1°C° 0 mm 7 mps 743 mmHg 52%
    03:00 -1°C° 0 mm 7 mps 742 mmHg 52%
    04:00 0°C° 0 mm 7 mps 742 mmHg 52%
    05:00 0°C° 0.1 mm 7 mps 742 mmHg 58%
    06:00 0°C° 0.1 mm 8 mps 741 mmHg 63%
    07:00 0°C° 0.1 mm 8 mps 741 mmHg 69%
    08:00 +1°C° 0.2 mm 8 mps 741 mmHg 73%
    09:00 +2°C° 0.2 mm 8 mps 741 mmHg 78%
    10:00 +2°C° 0.2 mm 8 mps 741 mmHg 83%
    11:00 +4°C° 0 mm 8 mps 741 mmHg 83%
    12:00 +3°C° 0 mm 9 mps 741 mmHg 83%
    13:00 +5°C° 0 mm 9 mps 741 mmHg 83%
    14:00 +5°C° 0.2 mm 9 mps 741 mmHg 83%
    15:00 +5°C° 0.2 mm 8 mps 741 mmHg 84%
    16:00 +5°C° 0.2 mm 8 mps 741 mmHg 84%
    17:00 +5°C° 0.2 mm 8 mps 742 mmHg 84%
    18:00 +5°C° 0.2 mm 8 mps 742 mmHg 83%
    19:00 +5°C° 0.2 mm 8 mps 743 mmHg 83%
    20:00 +5°C° 0.2 mm 8 mps 743 mmHg 83%
    21:00 +5°C° 0.2 mm 8 mps 743 mmHg 83%
    22:00 +5°C° 0.2 mm 8 mps 743 mmHg 84%
    23:00 +5°C° 0.4 mm 7 mps 743 mmHg 83%

    Tomorrow, 8 December, Sunday

    Time Temperature Precipitation Wind Pressure Humidity
    00:00 +5°C° 0.4 mm 7 mps 744 mmHg 82%
    01:00 +4°C° 0.4 mm 6 mps 744 mmHg 81%
    02:00 +4°C° 0 mm 6 mps 744 mmHg 82%
    03:00 +4°C° 0 mm 6 mps 744 mmHg 84%
    04:00 +4°C° 0 mm 6 mps 744 mmHg 86%
    05:00 +4°C° 0 mm 6 mps 744 mmHg 86%
    06:00 +3°C° 0 mm 6 mps 744 mmHg 85%
    07:00 +3°C° 0 mm 6 mps 744 mmHg 85%
    08:00 +3°C° 0 mm 6 mps 744 mmHg 83%
    09:00 +4°C° 0 mm 6 mps 744 mmHg 81%
    10:00 +4°C° 0 mm 6 mps 744 mmHg 78%
    11:00 +4°C° 0 mm 7 mps 743 mmHg 76%
    12:00 +5°C° 0 mm 7 mps 743 mmHg 73%
    13:00 +5°C° 0 mm 7 mps 742 mmHg 70%
    14:00 +5°C° 0 mm 7 mps 742 mmHg 71%
    15:00 +5°C° 0 mm 7 mps 741 mmHg 71%
    16:00 +5°C° 0 mm 8 mps 740 mmHg 72%
    17:00 +5°C° 0 mm 8 mps 740 mmHg 71%
    18:00 +5°C° 0 mm 8 mps 739 mmHg 70%
    19:00 +6°C° 0 mm 8 mps 739 mmHg 70%
    20:00 +6°C° 0.2 mm 8 mps 738 mmHg 74%
    21:00 +6°C° 0.2 mm 8 mps 738 mmHg 78%
    22:00 +6°C° 0.2 mm 8 mps 738 mmHg 82%
    23:00 +6°C° 0 mm 8 mps 737 mmHg 82%

    Day after tomorrow, 9 December, Monday

    Time Temperature Precipitation Wind Pressure Humidity
    00:00 +6°C° 0 mm 8 mps 737 mmHg 81%
    01:00 +6°C° 0 mm 7 mps 737 mmHg 80%
    02:00 +6°C° 0.2 mm 7 mps 737 mmHg 82%
    03:00 +6°C° 0.2 mm 8 mps 736 mmHg 83%
    04:00 +6°C° 0.2 mm 8 mps 736 mmHg 85%
    05:00 +6°C° 0.1 mm 8 mps 736 mmHg 84%
    06:00 +6°C° 0.1 mm 7 mps 736 mmHg 82%
    07:00 +6°C° 0.1 mm 7 mps 736 mmHg 81%
    08:00 +6°C° 0 mm 7 mps 737 mmHg 77%
    09:00 +7°C° 0 mm 6 mps 737 mmHg 74%
    10:00 +7°C° 0 mm 6 mps 737 mmHg 70%
    11:00 +7°C° 0 mm 5 mps 737 mmHg 68%
    12:00 +7°C° 0 mm 5 mps 737 mmHg 66%
    13:00 +7°C° 0 mm 5 mps 737 mmHg 64%
    14:00 +7°C° 0 mm 5 mps 737 mmHg 66%
    15:00 +6°C° 0 mm 4 mps 736 mmHg 67%
    16:00 +6°C° 0 mm 4 mps 736 mmHg 68%
    17:00 +5°C° 0 mm 5 mps 736 mmHg 69%
    18:00 +5°C° 0 mm 5 mps 736 mmHg 70%
    19:00 +5°C° 0 mm 5 mps 737 mmHg 72%
    20:00 +3°C° 0 mm 5 mps 737 mmHg 74%
    21:00 +3°C° 0 mm 5 mps 736 mmHg 76%
    22:00 +3°C° 0 mm 5 mps 736 mmHg 78%
    23:00 +2°C° 0 mm 5 mps 737 mmHg 79%

    10 December, Tuesday

    Time Temperature Precipitation Wind Pressure Humidity
    00:00 +2°C° 0 mm 5 mps 737 mmHg 80%
    01:00 +2°C° 0 mm 5 mps 737 mmHg 81%
    02:00 +2°C° 0 mm 5 mps 738 mmHg 81%
    03:00 +2°C° 0 mm 5 mps 738 mmHg 82%
    04:00 +2°C° 0 mm 5 mps 738 mmHg 83%
    05:00 +2°C° 0 mm 5 mps 739 mmHg 84%
    06:00 +2°C° 0 mm 5 mps 739 mmHg 85%
    07:00 +2°C° 0 mm 5 mps 740 mmHg 86%
    08:00 +2°C° 0 mm 6 mps 741 mmHg 86%
    09:00 +3°C° 0 mm 6 mps 741 mmHg 86%
    10:00 +3°C° 0 mm 6 mps 742 mmHg 86%
    11:00 +3°C° 0.1 mm 7 mps 742 mmHg 86%
    12:00 +3°C° 0.1 mm 7 mps 743 mmHg 85%
    13:00 +3°C° 0.1 mm 7 mps 744 mmHg 84%
    14:00 +3°C° 0.2 mm 7 mps 744 mmHg 81%
    15:00 +3°C° 0.2 mm 7 mps 745 mmHg 78%
    16:00 +3°C° 0.2 mm 7 mps 746 mmHg 75%
    17:00 +2°C° 0.1 mm 7 mps 748 mmHg 75%
    18:00 +1°C° 0.1 mm 6 mps 749 mmHg 74%
    19:00 -1°C° 0.1 mm 6 mps 750 mmHg 74%
    20:00 0°C° 0 mm 5 mps 751 mmHg 72%
    21:00 -1°C° 0 mm 4 mps 752 mmHg 70%
    22:00 -2°C° 0 mm 4 mps 753 mmHg 68%
    23:00 -1°C° 0 mm 3 mps 753 mmHg 69%

    11 December, Wednesday

    Time Temperature Precipitation Wind Pressure Humidity
    00:00 -1°C° 0 mm 3 mps 753 mmHg 70%
    01:00 -2°C° 0 mm 2 mps 754 mmHg 70%
    02:00 -2°C° 0 mm 2 mps 754 mmHg 70%
    03:00 -2°C° 0 mm 2 mps 754 mmHg 70%
    04:00 0°C° 0 mm 1 mps 754 mmHg 70%
    05:00 0°C° 0 mm 1 mps 754 mmHg 70%
    06:00 0°C° 0 mm 1 mps 754 mmHg 69%
    07:00 0°C° 0 mm 1 mps 754 mmHg 68%
    08:00 -1°C° 0 mm 2 mps 754 mmHg 65%
    09:00 -1°C° 0 mm 2 mps 754 mmHg 61%
    10:00 0°C° 0 mm 3 mps 754 mmHg 58%
    11:00 -1°C° 0 mm 4 mps 753 mmHg 54%
    12:00 0°C° 0 mm 4 mps 753 mmHg 51%
    13:00 0°C° 0 mm 5 mps 752 mmHg 48%
    14:00 -1°C° 0 mm 5 mps 752 mmHg 52%
    15:00 -1°C° 0 mm 5 mps 752 mmHg 55%
    16:00 -2°C° 0 mm 4 mps 751 mmHg 59%
    17:00 -2°C° 0 mm 5 mps 751 mmHg 59%
    18:00 -3°C° 0 mm 6 mps 751 mmHg 60%
    19:00 -3°C° 0 mm 6 mps 750 mmHg 60%
    20:00 -3°C° 0 mm 6 mps 750 mmHg 59%
    21:00 -3°C° 0 mm 6 mps 750 mmHg 58%
    22:00 -3°C° 0 mm 6 mps 749 mmHg 57%
    23:00 -2°C° 0 mm 5 mps 749 mmHg 58%

    12 December, Thursday

    Time Temperature Precipitation Wind Pressure Humidity
    00:00 -2°C° 0 mm 5 mps 749 mmHg 59%
    01:00 -2°C° 0 mm 5 mps 748 mmHg 61%
    02:00 -2°C° 0 mm 4 mps 748 mmHg 63%
    03:00 -2°C° 0 mm 4 mps 748 mmHg 65%
    04:00 -2°C° 0 mm 4 mps 748 mmHg 67%
    05:00 -2°C° 0 mm 4 mps 747 mmHg 69%
    06:00 -2°C° 0 mm 4 mps 747 mmHg 71%
    07:00 -2°C° 0 mm 4 mps 747 mmHg 74%
    08:00 -2°C° 0 mm 4 mps 747 mmHg 70%
    09:00 -1°C° 0 mm 5 mps 747 mmHg 67%
    10:00 0°C° 0 mm 5 mps 747 mmHg 63%
    11:00 0°C° 0 mm 5 mps 747 mmHg 62%
    12:00 +1°C° 0 mm 5 mps 746 mmHg 61%
    13:00 +1°C° 0 mm 5 mps 746 mmHg 59%
    14:00 0°C° 0 mm 4 mps 746 mmHg 63%
    15:00 +1°C° 0 mm 3 mps 746 mmHg 67%
    16:00 0°C° 0 mm 3 mps 746 mmHg 71%
    17:00 0°C° 0 mm 3 mps 745 mmHg 73%
    18:00 -1°C° 0 mm 3 mps 745 mmHg 75%
    19:00 -1°C° 0 mm 3 mps 745 mmHg 77%
    20:00 -1°C° 0 mm 3 mps 744 mmHg 78%
    21:00 -1°C° 0 mm 3 mps 744 mmHg 79%
    22:00 -2°C° 0 mm 3 mps 744 mmHg 79%
    23:00 -1°C° 0 mm 3 mps 743 mmHg 82%
    Show more